Total_Precipitation_Accumulation
0.45 0.39 0.35 0.42 0.40 0.34 0.30 0.34 0.40 0.43 0.43 0.50 0.61 0.71 0.80 0.98 1.19 1.24 1.32 1.46 1.47 1.49 1.62 1.73 1.77 1.70 1.62 1.70 1.88 2.25 2.12 1.75 1.59 1.63 1.49 1.33 1.32 1.40 1.38 1.51 1.60 1.51 1.44
0.36 0.31 0.30 0.33 0.33 0.29 0.27 0.29 0.38 0.47 0.51 0.54 0.68 0.83 1.05 1.16 1.32 1.48 1.47 1.50 1.55 1.59 1.67 1.87 1.99 1.92 1.91 2.00 2.05 2.31 2.46 2.16 1.97 2.00 2.17 1.92 1.71 1.38 1.14 1.24 1.37 1.43 1.46
0.31 0.24 0.26 0.28 0.28 0.27 0.30 0.31 0.42 0.63 0.81 0.89 1.10 1.39 1.64 1.71 1.64 1.65 1.70 1.69 1.71 1.78 1.75 1.86 2.05 2.04 2.02 2.06 2.25 2.57 2.88 2.78 2.50 2.31 2.48 2.23 1.96 1.84 1.34 1.10 1.16 1.30 1.42
0.38 0.29 0.27 0.30 0.28 0.30 0.40 0.55 0.75 1.04 1.27 1.40 1.57 1.79 1.90 1.93 1.86 1.88 1.88 1.86 1.76 1.69 1.69 1.82 2.01 2.16 2.27 2.35 2.41 2.42 2.78 3.04 2.85 2.69 2.37 2.06 1.93 2.08 1.91 1.44 1.15 1.20 1.26
0.41 0.42 0.41 0.45 0.47 0.56 0.75 1.05 1.29 1.49 1.63 1.68 1.75 1.93 2.07 2.23 2.26 2.15 2.01 1.90 1.86 1.79 1.70 1.74 1.82 1.87 1.97 2.11 2.24 2.31 2.55 2.73 2.87 2.83 2.62 2.34 2.19 1.80 1.82 1.88 1.61 1.31 1.09
0.46 0.56 0.67 0.79 0.89 0.99 1.17 1.37 1.49 1.62 1.61 1.61 1.65 1.76 1.94 2.11 2.14 2.17 2.14 2.01 1.88 1.77 1.66 1.61 1.70 1.72 1.73 1.88 2.00 2.10 2.36 2.53 2.66 2.72 2.61 2.50 2.45 2.19 1.95 1.78 1.75 1.58 1.26
0.55 0.75 0.89 1.05 1.16 1.26 1.36 1.38 1.35 1.38 1.42 1.41 1.42 1.49 1.55 1.59 1.65 1.77 1.71 1.57 1.46 1.41 1.39 1.31 1.36 1.50 1.55 1.73 1.82 1.76 1.82 2.00 2.23 2.40 2.44 2.43 2.33 2.30 2.23 2.06 1.87 1.64 1.31
0.81 0.93 1.03 1.14 1.18 1.30 1.35 1.30 1.25 1.22 1.15 1.11 1.14 1.14 1.17 1.22 1.25 1.27 1.22 1.15 1.11 1.08 1.05 1.04 1.06 1.13 1.20 1.43 1.66 1.64 1.65 1.71 1.81 1.90 2.16 2.29 2.23 2.25 2.06 1.94 1.97 1.76 1.48
1.07 1.24 1.23 1.14 1.07 1.12 1.19 1.16 1.09 1.03 0.94 0.88 0.91 0.93 0.99 1.01 0.98 0.96 0.90 0.90 0.84 0.84 0.82 0.85 0.95 1.01 0.99 1.10 1.25 1.43 1.49 1.56 1.63 1.65 1.82 1.94 2.04 2.01 1.83 1.85 1.92 1.80 1.53
1.14 1.41 1.53 1.41 1.14 0.97 1.00 0.96 0.92 0.93 0.90 0.86 0.88 0.87 0.79 0.72 0.72 0.74 0.68 0.67 0.72 0.75 0.75 0.72 0.74 0.82 0.85 0.95 1.07 1.12 1.22 1.30 1.46 1.63 1.77 1.79 1.83 1.88 1.77 1.74 1.86 1.84 1.63
1.33 1.47 1.49 1.36 1.18 0.91 0.85 0.83 0.80 0.83 0.87 0.80 0.84 0.85 0.74 0.60 0.56 0.53 0.50 0.51 0.54 0.59 0.60 0.62 0.69 0.72 0.75 0.77 0.77 0.82 0.89 0.96 1.06 1.15 1.29 1.49 1.67 1.75 1.75 1.78 1.83 1.87 1.74
0.99 0.99 1.09 1.10 1.03 0.90 0.83 0.88 0.92 0.92 0.83 0.76 0.76 0.77 0.70 0.59 0.59 0.53 0.45 0.47 0.52 0.54 0.54 0.59 0.62 0.63 0.69 0.72 0.71 0.70 0.73 0.83 0.92 0.94 0.96 1.07 1.30 1.47 1.60 1.66 1.68 1.75 1.73
0.72 0.65 0.75 0.90 0.84 0.78 0.81 0.90 1.04 1.04 0.96 0.84 0.76 0.77 0.72 0.69 0.71 0.60 0.50 0.49 0.56 0.67 0.67 0.67 0.69 0.66 0.69 0.69 0.69 0.72 0.74 0.76 0.83 0.86 0.88 0.96 1.07 1.24 1.32 1.40 1.50 1.58 1.69
0.56 0.51 0.50 0.54 0.54 0.55 0.58 0.71 0.97 1.17 1.14 1.04 0.92 0.85 0.79 0.77 0.74 0.62 0.54 0.50 0.55 0.59 0.60 0.68 0.75 0.83 0.88 0.86 0.81 0.81 0.79 0.74 0.76 0.83 0.90 0.93 0.96 1.12 1.32 1.41 1.47 1.50 1.60
0.38 0.32 0.31 0.33 0.34 0.39 0.46 0.56 0.85 1.06 1.08 1.08 0.95 0.84 0.75 0.68 0.64 0.63 0.63 0.57 0.52 0.51 0.51 0.58 0.67 0.77 0.87 0.91 0.91 0.78 0.66 0.67 0.72 0.72 0.73 0.81 0.89 0.96 1.12 1.26 1.48 1.50 1.61
0.31 0.30 0.28 0.25 0.22 0.22 0.28 0.37 0.56 0.74 0.83 0.89 0.86 0.73 0.70 0.62 0.54 0.57 0.65 0.64 0.51 0.46 0.47 0.51 0.48 0.51 0.55 0.73 0.73 0.62 0.51 0.55 0.64 0.70 0.73 0.73 0.75 0.79 0.84 0.87 1.12 1.31 1.43
0.33 0.35 0.34 0.30 0.27 0.24 0.25 0.27 0.33 0.43 0.52 0.57 0.59 0.50 0.50 0.59 0.61 0.62 0.61 0.54 0.44 0.44 0.44 0.39 0.34 0.35 0.40 0.46 0.44 0.50 0.51 0.52 0.56 0.64 0.73 0.78 0.77 0.83 0.92 0.88 0.92 1.02 1.09
0.36 0.33 0.30 0.27 0.25 0.22 0.22 0.24 0.24 0.27 0.30 0.30 0.28 0.25 0.33 0.47 0.49 0.45 0.42 0.36 0.36 0.41 0.46 0.39 0.36 0.40 0.38 0.40 0.43 0.47 0.48 0.61 0.66 0.66 0.66 0.77 0.84 0.91 1.08 1.05 1.10 1.03 0.94
0.16 0.14 0.12 0.12 0.11 0.11 0.12 0.12 0.09 0.11 0.12 0.11 0.11 0.14 0.15 0.18 0.19 0.17 0.18 0.24 0.30 0.35 0.32 0.35 0.49 0.48 0.46 0.53 0.49 0.42 0.48 0.61 0.69 0.63 0.66 0.78 0.88 1.05 1.16 1.18 1.19 1.08 0.99
0.04 0.06 0.08 0.09 0.08 0.08 0.09 0.07 0.07 0.08 0.08 0.10 0.10 0.11 0.12 0.13 0.13 0.13 0.14 0.17 0.20 0.26 0.28 0.31 0.43 0.48 0.52 0.55 0.42 0.39 0.48 0.61 0.69 0.69 0.69 0.91 0.92 1.01 1.06 1.11 1.23 1.25 1.11
0.05 0.06 0.07 0.08 0.08 0.08 0.08 0.07 0.07 0.08 0.12 0.13 0.12 0.10 0.11 0.13 0.18 0.22 0.20 0.19 0.18 0.19 0.22 0.26 0.30 0.31 0.32 0.33 0.33 0.36 0.40 0.50 0.61 0.66 0.69 0.67 0.81 0.82 0.92 1.03 1.10 1.32 1.21
0.06 0.07 0.08 0.07 0.08 0.09 0.09 0.09 0.08 0.10 0.13 0.13 0.12 0.12 0.13 0.15 0.17 0.25 0.26 0.23 0.23 0.20 0.20 0.25 0.32 0.31 0.26 0.23 0.24 0.27 0.32 0.42 0.46 0.52 0.61 0.61 0.70 0.73 0.80 0.82 0.99 1.17 1.14
0.05 0.07 0.09 0.10 0.10 0.10 0.11 0.11 0.11 0.13 0.14 0.13 0.13 0.14 0.15 0.17 0.18 0.20 0.23 0.25 0.24 0.25 0.26 0.27 0.30 0.30 0.31 0.29 0.30 0.32 0.35 0.38 0.37 0.36 0.51 0.58 0.66 0.63 0.62 0.75 0.94 1.00 1.03
0.05 0.05 0.06 0.09 0.13 0.15 0.15 0.17 0.18 0.19 0.18 0.17 0.16 0.16 0.17 0.20 0.22 0.25 0.26 0.28 0.30 0.30 0.30 0.31 0.33 0.35 0.35 0.31 0.30 0.33 0.36 0.36 0.34 0.36 0.50 0.62 0.68 0.66 0.63 0.70 0.83 0.88 1.02
0.09 0.06 0.06 0.07 0.10 0.14 0.16 0.19 0.20 0.21 0.22 0.22 0.22 0.21 0.21 0.22 0.26 0.29 0.32 0.30 0.31 0.33 0.32 0.33 0.36 0.34 0.31 0.30 0.33 0.35 0.38 0.39 0.39 0.47 0.62 0.75 0.76 0.77 0.73 0.76 0.86 0.83 0.81
0.08 0.07 0.08 0.07 0.08 0.09 0.10 0.13 0.15 0.17 0.19 0.24 0.24 0.22 0.25 0.29 0.29 0.29 0.28 0.29 0.30 0.33 0.32 0.31 0.34 0.34 0.32 0.32 0.35 0.39 0.42 0.42 0.50 0.66 0.82 0.92 1.00 1.00 0.94 0.89 0.88 0.81 0.79